Weather History for Alliance, NE

Change the Weather History Date:

Saturday, June 15, 2013

  Actual Average Record
Temperature  
Mean Temperature 66 °F 65 °F  
Max Temperature 78 °F 80 °F 100 °F (1952)
Min Temperature 54 °F 50 °F 35 °F (2001)
Degree Days  
Heating Degree Days 0 3  
Month to date heating degree days 62 67  
Since 1 June heating degree days 62 67  
Since 1 July heating degree days 7190 7282  
Cooling Degree Days 1 3  
Month to date cooling degree days 40 27  
Year to date cooling degree days 62 37  
Since 1 June cooling degree days 40 27  
Growing Degree Days 16 (Base 50)    
Moisture  
Dew Point 52 °F    
Average Humidity 64    
Maximum Humidity 93    
Minimum Humidity 35    
Precipitation  
Precipitation T in 0.10 in 1.11 in (1945)
Month to date precipitation 0.40 1.56  
Year to date precipitation 5.72 7.07  
Sea Level Pressure  
Sea Level Pressure 29.94 in    
Wind  
Wind Speed 9 mph (ENE)    
Max Wind Speed 16 mph    
Max Gust Speed 21 mph    
Visibility 10 miles    
Events Rain    
T = Trace of Precipitation, MM = Missing Value Source: NWS Daily Summary

Daily Weather History Graph

Daily Weather History Graph

Search for Another Location

Airport:

Trip Planner

Search our weather history database for the weather conditions in past years. The results will help you decide how hot, cold, wet, or windy it might be!

Date:

Astronomy

Jun. 15, 2013 Rise Set
Actual Time 5:14 AM MDT 8:28 PM MDT
Civil Twilight 4:40 AM MDT 9:03 PM MDT
Nautical Twilight 3:55 AM MDT 9:47 PM MDT
Astronomical Twilight 3:02 AM MDT 10:41 PM MDT
Moon 11:58 AM MDT (6/15) No Moon Set
Length of Visible Light 16h 23m
Length of Day
15h 14m
Waxing Crescent, 40% of the Moon is Illuminated
Jun 15
Waxing Crescent
Jun 16
First Quarter
Jun 23
Full
Jun 29
Last Quarter
Jul 8
New

Hourly Weather History & Observations

Time (MDT) Temp. Dew Point Humidity Pressure Visibility Wind Dir Wind Speed Gust Speed Precip Events Conditions
12:53 AM 68.0 °F 54.0 °F 61% 29.89 in 10.0 mi NNW 10.4 mph - N/A   Mostly Cloudy
1:53 AM 63.0 °F 57.9 °F 84% 29.86 in 10.0 mi ENE 11.5 mph - 0.00 in Rain Light Rain
2:53 AM 62.1 °F 60.1 °F 93% 29.83 in 10.0 mi NNE 8.1 mph - 0.00 in   Clear
3:53 AM 57.9 °F 55.0 °F 90% 29.87 in 10.0 mi Variable 3.5 mph - N/A   Clear
4:53 AM 55.0 °F 52.0 °F 89% 29.90 in 10.0 mi North 6.9 mph - N/A   Clear
5:53 AM 54.0 °F 52.0 °F 93% 29.93 in 10.0 mi North 8.1 mph - N/A   Clear
6:53 AM 57.0 °F 52.0 °F 83% 29.96 in 10.0 mi North 11.5 mph - N/A   Clear
7:53 AM 60.1 °F 51.1 °F 72% 29.97 in 10.0 mi NNE 11.5 mph - N/A   Clear
8:53 AM 66.0 °F 50.0 °F 56% 29.96 in 10.0 mi NE 12.7 mph 20.7 mph N/A   Clear
9:53 AM 69.1 °F 50.0 °F 51% 29.98 in 10.0 mi NE 10.4 mph - N/A   Clear
10:53 AM 71.1 °F 46.9 °F 42% 29.98 in 10.0 mi ENE 9.2 mph - N/A   Clear
11:53 AM 73.0 °F 46.9 °F 39% 29.96 in 10.0 mi ENE 10.4 mph 17.3 mph N/A   Clear
12:16 PM 73.4 °F 46.4 °F 38% 30.07 in 10.0 mi NE 8.1 mph - N/A   Partly Cloudy
12:53 PM 75.0 °F 46.0 °F 36% 29.95 in 10.0 mi ENE 9.2 mph - N/A   Clear
1:53 PM 77.0 °F 48.0 °F 36% 29.94 in 10.0 mi ENE 9.2 mph 16.1 mph N/A   Clear
2:53 PM 77.0 °F 48.0 °F 36% 29.93 in 10.0 mi East 10.4 mph 18.4 mph N/A   Clear
3:53 PM 78.1 °F 48.0 °F 35% 29.92 in 10.0 mi East 8.1 mph - N/A   Clear
4:53 PM 75.0 °F 51.1 °F 43% 29.93 in 10.0 mi East 11.5 mph - N/A   Clear
5:53 PM 73.9 °F 52.0 °F 46% 29.93 in 10.0 mi ESE 9.2 mph - N/A   Clear
6:53 PM 73.9 °F 53.1 °F 48% 29.93 in 10.0 mi SE 10.4 mph - N/A   Clear
7:53 PM 69.1 °F 54.0 °F 58% 29.93 in 10.0 mi ESE 9.2 mph - N/A   Clear
8:53 PM 64.0 °F 54.0 °F 70% 29.93 in 10.0 mi ESE 8.1 mph - N/A   Clear
9:53 PM 60.1 °F 54.0 °F 80% 29.96 in 10.0 mi ESE 9.2 mph - N/A   Clear
10:53 PM 59.0 °F 55.0 °F 87% 29.95 in 10.0 mi ESE 8.1 mph - N/A   Clear
11:53 PM 57.9 °F 54.0 °F 87% 29.94 in 10.0 mi SE 6.9 mph - N/A   Clear